0 HST 1 20580U 90037B 26255.21903661 .00004906 00000-0 14867-3 0 9990 2 20580 28.4730 205.3366 0001795 39.5104 320.5623 15.31621652801923 0 ISS (ZARYA) 1 25544U 98067A 26255.20788499 .00004954 00000-0 97729-4 0 9997 2 25544 51.6305 229.4056 0004953 131.3152 228.8264 15.49086570585248 0 CXO 1 25867U 99040B 26256.64753562 .00000750 00000-0 00000-0 0 9991 2 25867 57.3946 114.3238 7696466 309.4554 0.6118 0.37808225 17661